User: anonymous   Login
Location: Karlovy Vary
(50.2170°N, 12.9000°E)
Time: 02:39:14
(UTC+01:00)
Language:

ISS - Orbit

View from above orbital plane
View from above orbital plane
View from above satellite
View from above satellite

Ground track
Ground track

The orbit data is extracted from the following two-line orbital elements,

1 25544U 98067A   15065.88662479  .00015948  00000-0  24082-3 0  9993
2 25544 051.6448 235.0020 0008892 077.5663 072.9918 15.54868061932119
Epoch (UTC): 06 March 2015 21:16:44
Eccentricity: 0.0008892
inclination: 51.6448°
perigee height: 396 km
apogee height: 408 km
right ascension of ascending node: 235.0020°
argument of perigee: 77.5663°
revolutions per day: 15.54868061
mean anomaly at epoch: 72.9918°
orbit number at epoch: 93211

The dashed part of the orbit path shows where the satellite is in the earth's shadow,  

DLR